Date String (YYYY-MM-DD hh:mm:ss) UTC,Instrument flags,Ambient pressure (hPa),Sample flow (lpm),Bypass flow (lpm),Sample temperature (°C),Ambient temperature (°C),ASC tube jacket temperature (°C),LED temperature (°C),Box temperature (°C),Sample RH (%),Span deviation,Mass concentration (μg/m³),Mass concentration (μg/m³),Mass concentration (μg/m³)
DateTimeUTC,F1_M11,P_M11,Q1_M11,Q2_M11,T1_M11,T2_M11,T3_M11,T4_M11,T5_M11,U1_M11,ZSPAN_M11,X0_M11,X2_M11,X1_M11
2022-07-01 08:00:00,,0832.3,5.00,0.00,30.2,29.2,00.0,39.0,32.0,26.2,0000.0,0007.75,0003.11,0001.85
2022-07-01 08:01:00,,0832.2,5.01,0.00,30.2,29.2,00.0,39.0,32.1,26.2,0000.0,0007.82,0003.12,0001.83
2022-07-01 08:02:00,,0832.2,4.99,0.00,30.2,29.2,00.0,39.0,32.0,26.2,0000.0,0007.87,0003.14,0001.82
2022-07-01 08:03:00,,0832.2,4.99,0.00,30.2,29.2,00.0,39.0,32.0,26.2,0000.0,0008.02,0003.08,0001.80
2022-07-01 08:04:00,,0832.2,5.01,0.00,30.2,29.2,00.0,39.0,32.1,26.3,0000.0,0008.13,0003.09,0001.80
2022-07-01 08:05:00,,0832.1,5.00,0.00,30.2,29.2,00.0,39.0,32.1,26.2,0000.0,0008.54,0003.10,0001.80
2022-07-01 08:06:00,,0832.1,5.01,0.00,30.2,29.2,00.0,39.0,32.1,26.1,0000.0,0008.55,0003.11,0001.80
2022-07-01 08:07:00,,0832.1,5.00,0.00,30.2,29.2,00.0,39.0,32.1,26.1,0000.0,0008.29,0003.02,0001.80
2022-07-01 08:08:00,,0832.1,5.00,0.00,30.2,29.2,00.0,39.0,32.1,26.1,0000.0,0007.39,0003.02,0001.81
2022-07-01 08:09:00,,0832.1,5.00,0.00,30.2,29.2,00.0,39.0,32.1,26.1,0000.0,0007.48,0003.07,0001.84
2022-07-01 08:10:00,,0832.1,5.00,0.00,30.2,29.2,00.0,39.0,32.1,26.1,0000.0,0007.55,0003.12,0001.85
2022-07-01 08:11:00,,0832.0,5.00,0.00,30.2,29.2,00.0,39.0,32.1,26.1,0000.0,0007.43,0003.04,0001.84
2022-07-01 08:12:00,,0832.1,5.00,0.00,30.2,29.2,00.0,39.0,32.1,26.2,0000.0,0007.37,0003.03,0001.85
2022-07-01 08:13:00,,0832.1,5.00,0.00,30.2,29.2,00.0,39.0,32.1,26.2,0000.0,0007.48,0003.07,0001.87
2022-07-01 08:14:00,,0832.1,5.00,0.00,30.2,29.2,00.0,39.0,32.1,26.1,0000.0,0007.31,0003.12,0001.88
2022-07-01 08:15:00,,0832.1,4.99,0.00,30.2,29.2,00.0,39.1,32.1,26.1,0000.0,0007.02,0003.11,0001.87
2022-07-01 08:16:00,,0832.1,4.99,0.00,30.2,29.2,00.0,39.1,32.1,26.1,0000.0,0006.27,0003.05,0001.87
2022-07-01 08:17:00,,0832.0,5.00,0.00,30.2,29.2,00.0,39.1,32.1,26.1,0000.0,0005.99,0003.00,0001.87
2022-07-01 08:18:00,,0831.9,5.00,0.00,30.2,29.2,00.0,39.1,32.1,26.1,0000.0,0006.92,0003.03,0001.87
2022-07-01 08:19:00,,0832.0,5.01,0.00,30.2,29.2,00.0,39.1,32.1,26.1,0000.0,0007.32,0003.09,0001.88
2022-07-01 08:20:00,,0831.9,4.98,0.00,30.2,29.2,00.0,39.1,32.1,26.1,0000.0,0007.09,0003.07,0001.87
2022-07-01 08:21:00,,0832.0,5.01,0.00,30.2,29.2,00.0,39.1,32.1,26.1,0000.0,0006.89,0003.02,0001.86
2022-07-01 08:22:00,,0831.9,4.99,0.00,30.2,29.2,00.0,39.1,32.1,26.1,0000.0,0007.70,0003.05,0001.87
2022-07-01 08:23:00,,0831.9,5.00,0.00,30.2,29.2,00.0,39.1,32.1,26.1,0000.0,0007.86,0003.11,0001.88
2022-07-01 08:24:00,,0831.8,5.00,0.00,30.2,29.2,00.0,39.1,32.1,26.1,0000.0,0007.67,0003.01,0001.88
2022-07-01 08:25:00,,0831.8,5.00,0.00,30.2,29.2,00.0,39.1,32.1,26.0,0000.0,0007.64,0003.00,0001.87
2022-07-01 08:26:00,,0831.7,4.99,0.00,30.2,29.2,00.0,39.1,32.1,26.0,0000.0,0007.58,0002.95,0001.88
2022-07-01 08:27:00,,0831.7,4.98,0.00,30.2,29.2,00.0,39.1,32.1,25.9,0000.0,0007.49,0002.97,0001.89
2022-07-01 08:28:00,,0831.7,4.99,0.00,30.3,29.2,00.0,39.1,32.1,25.9,0000.0,0007.47,0002.98,0001.91
2022-07-01 08:29:00,,0831.7,5.00,0.00,30.2,29.2,00.0,39.1,32.1,25.9,0000.0,0006.90,0002.99,0001.92
2022-07-01 08:30:00,,0831.7,5.01,0.00,30.3,29.2,00.0,39.1,32.1,25.9,0000.0,0006.30,0002.92,0001.93
2022-07-01 08:31:00,,0831.7,5.00,0.00,30.3,29.2,00.0,39.1,32.1,25.9,0000.0,0006.28,0002.92,0001.95
2022-07-01 08:32:00,,0831.7,5.00,0.00,30.3,29.2,00.0,39.1,32.1,25.9,0000.0,0006.32,0002.94,0001.97
2022-07-01 08:33:00,,0831.7,4.99,0.00,30.3,29.2,00.0,39.1,32.1,25.9,0000.0,0005.66,0002.94,0001.98
2022-07-01 08:34:00,,0831.7,4.99,0.00,30.3,29.2,00.0,39.1,32.1,25.9,0000.0,0005.08,0002.93,0001.98
2022-07-01 08:35:00,,0831.7,5.00,0.00,30.3,29.2,00.0,39.1,32.1,25.9,0000.0,0005.28,0003.02,0001.99
2022-07-01 08:36:00,,0831.7,5.00,0.00,30.3,29.2,00.0,39.1,32.1,25.9,0000.0,0005.43,0003.09,0002.00
2022-07-01 08:37:00,,0831.7,5.00,0.00,30.3,29.2,00.0,39.1,32.1,25.9,0000.0,0005.59,0003.13,0002.02
2022-07-01 08:38:00,,0831.7,4.99,0.00,30.3,29.3,00.0,39.1,32.2,25.9,0000.0,0006.33,0003.16,0002.03
2022-07-01 08:39:00,,0831.7,5.00,0.00,30.3,29.3,00.0,39.1,32.2,25.8,0000.0,0007.14,0003.17,0002.03
2022-07-01 08:40:00,,0831.7,5.00,0.00,30.3,29.3,00.0,39.1,32.2,25.8,0000.0,0007.16,0003.16,0002.04
2022-07-01 08:41:00,,0831.6,4.99,0.00,30.3,29.3,00.0,39.1,32.2,25.8,0000.0,0007.23,0003.16,0002.02
2022-07-01 08:42:00,,0831.6,5.01,0.00,30.3,29.3,00.0,39.1,32.2,25.8,0000.0,0007.42,0003.18,0002.03
2022-07-01 08:43:00,,0831.6,4.99,0.00,30.3,29.3,00.0,39.1,32.2,25.8,0000.0,0007.52,0003.20,0002.03
2022-07-01 08:44:00,,0831.6,5.00,0.00,30.3,29.3,00.0,39.1,32.2,25.8,0000.0,0007.53,0003.19,0002.02
2022-07-01 08:45:00,,0831.5,5.01,0.00,30.3,29.3,00.0,39.1,32.2,25.8,0000.0,0007.90,0003.21,0002.02
2022-07-01 08:46:00,,0831.5,5.01,0.00,30.3,29.3,00.0,39.1,32.2,25.8,0000.0,0008.94,0003.18,0002.02
2022-07-01 08:47:00,,0831.6,4.99,0.00,30.3,29.3,00.0,39.1,32.2,25.8,0000.0,0008.88,0003.11,0002.02
2022-07-01 08:48:00,,0831.5,5.00,0.00,30.3,29.3,00.0,39.2,32.2,25.8,0000.0,0008.96,0003.11,0002.03
2022-07-01 08:49:00,,0831.5,4.99,0.00,30.3,29.3,00.0,39.2,32.2,25.8,0000.0,0008.71,0003.10,0002.02
2022-07-01 08:50:00,,0831.5,5.01,0.00,30.3,29.3,00.0,39.2,32.2,25.7,0000.0,0008.47,0003.12,0002.03
2022-07-01 08:51:00,,0831.5,5.00,0.00,30.4,29.3,00.0,39.2,32.2,25.7,0000.0,0008.61,0003.17,0002.03
2022-07-01 08:52:00,,0831.4,5.00,0.00,30.4,29.3,00.0,39.2,32.2,25.7,0000.0,0008.82,0003.21,0002.04
2022-07-01 08:53:00,,0831.4,5.00,0.00,30.4,29.3,00.0,39.2,32.2,25.7,0000.0,0009.39,0003.21,0002.04
2022-07-01 08:54:00,,0831.3,5.00,0.00,30.4,29.3,00.0,39.2,32.2,25.6,0000.0,0009.23,0003.17,0002.02
2022-07-01 08:55:00,,0831.3,5.01,0.00,30.4,29.3,00.0,39.2,32.2,25.6,0000.0,0009.26,0003.17,0002.03
2022-07-01 08:56:00,,0831.3,5.00,0.00,30.4,29.3,00.0,39.2,32.2,25.6,0000.0,0008.92,0003.15,0002.04
2022-07-01 08:57:00,,0831.3,4.99,0.00,30.4,29.4,00.0,39.2,32.2,25.6,0000.0,0008.65,0003.21,0002.05
2022-07-01 08:58:00,,0831.3,5.00,0.00,30.4,29.4,00.0,39.2,32.2,25.6,0000.0,0008.80,0003.27,0002.07
2022-07-01 08:59:00,,0831.3,5.00,0.00,30.4,29.4,00.0,39.2,32.3,25.6,0000.0,0008.69,0003.26,0002.07
